Cherokee, North Carolina, United States (28719)
Lat: 35.47N, Lon: 83.31W
Wx Zone: NCZ051
Local Info
Past Weather Observations for Today

NOTE: This archive is for the closest National Weather Service station to Cherokee. Information may differ from the station used for current weather conditions.

Click here for Long-term Archive

Time Weather Temperature Dewpoint Humidity Pressure Winds Precip Visibility
22:20
Overcast
68°F / 20°C 68°F / 20°C 100% 30.24 in
(1024 mb)
Calm - 7SM
22:00
Overcast
Fog And Mist
68°F / 20°C 68°F / 20°C 100% 30.24 in
(1024 mb)
Calm - 2 1/2SM
21:35
Overcast
Fog And Mist
68°F / 20°C 68°F / 20°C 100% 30.21 in
(1023 mb)
Calm - 2 1/2SM
21:15
Overcast
70°F / 21°C 70°F / 21°C 100% 30.21 in
(1023 mb)
Calm - 7SM
20:55
Overcast
70°F / 21°C 70°F / 21°C 100% 30.21 in
(1023 mb)
Calm - 10SM
20:35
Overcast
70°F / 21°C 70°F / 21°C 100% 30.21 in
(1023 mb)
Calm - 7SM
20:15
Overcast
70°F / 21°C 70°F / 21°C 100% 30.18 in
(1022 mb)
Calm - 10SM
19:50
Overcast
72°F / 22°C 72°F / 22°C 100% 30.18 in
(1022 mb)
Calm - 10SM
19:35
Overcast
72°F / 22°C 72°F / 22°C 100% 30.18 in
(1022 mb)
Calm - 10SM
19:15
Overcast
72°F / 22°C 72°F / 22°C 100% 30.18 in
(1022 mb)
Calm - 10SM
18:55
Overcast
73°F / 23°C 72°F / 22°C 94% 30.18 in
(1022 mb)
Calm - 10SM
18:35
Overcast
73°F / 23°C 72°F / 22°C 94% 30.18 in
(1022 mb)
Calm - 10SM
18:15
Mostly Cloudy
72°F / 22°C 72°F / 22°C 100% 30.18 in
(1022 mb)
Calm - 10SM
17:55
Overcast
72°F / 22°C 72°F / 22°C 100% 30.15 in
(1021 mb)
Calm 0.12 in
(3.05 mm)
10SM
17:35
Overcast
72°F / 22°C 72°F / 22°C 100% 30.15 in
(1021 mb)
Calm 0.12 in
(3.05 mm)
10SM
17:15
Overcast
Rain
72°F / 22°C 70°F / 21°C 94% 30.15 in
(1021 mb)
NW 5.8 mph
(NW 9 kph)
0.12 in
(3.05 mm)
2 1/2SM
16:55
Overcast
Heavy Rain
75°F / 24°C 68°F / 20°C 78% 30.18 in
(1022 mb)
E 6.9 mph
(E 11 kph)
0.02 in
(0.51 mm)
5SM
16:35
Overcast
82°F / 28°C 66°F / 19°C 58% 30.15 in
(1021 mb)
Calm - 10SM
16:15
Overcast
81°F / 27°C 64°F / 18°C 58% 30.15 in
(1021 mb)
Calm - 10SM
15:55
Mostly Cloudy
84°F / 29°C 64°F / 18°C 51% 30.15 in
(1021 mb)
SE 4.6 mph
(SE 7 kph)
- 10SM
15:40
Partly Cloudy
82°F / 28°C 64°F / 18°C 55% 30.15 in
(1021 mb)
S 4.6 mph
(S 7 kph)
- 10SM
15:15
Partly Cloudy
81°F / 27°C 64°F / 18°C 58% 30.15 in
(1021 mb)
SW 4.6 mph
(SW 7 kph)
- 10SM
14:55
Partly Cloudy
81°F / 27°C 64°F / 18°C 58% 30.15 in
(1021 mb)
SE 3.5 mph
(SE 6 kph)
- 10SM
14:35
Clear
82°F / 28°C 64°F / 18°C 55% 30.18 in
(1022 mb)
S 3.5 mph
(S 6 kph)
- 10SM
14:15
Partly Cloudy
81°F / 27°C 64°F / 18°C 58% 30.18 in
(1022 mb)
Calm - 10SM
13:55
Mostly Cloudy
82°F / 28°C 64°F / 18°C 55% 30.18 in
(1022 mb)
Calm - 10SM
13:35
Partly Cloudy
79°F / 26°C 64°F / 18°C 61% 30.18 in
(1022 mb)
Calm - 10SM
13:15
Mostly Cloudy
81°F / 27°C 63°F / 17°C 54% 30.18 in
(1022 mb)
Calm - 10SM
12:55
Partly Cloudy
79°F / 26°C 63°F / 17°C 58% 30.18 in
(1022 mb)
Calm - 10SM
12:35
Overcast
77°F / 25°C 64°F / 18°C 65% 30.21 in
(1023 mb)
Calm - 10SM
12:15
Mostly Cloudy
77°F / 25°C 64°F / 18°C 65% 30.21 in
(1023 mb)
SE 3.5 mph
(SE 6 kph)
- 10SM
11:55
Mostly Cloudy
79°F / 26°C 63°F / 17°C 58% 30.21 in
(1023 mb)
S 4.6 mph
(S 7 kph)
- 10SM
11:35
Mostly Cloudy
77°F / 25°C 63°F / 17°C 61% 30.21 in
(1023 mb)
ENE 3.5 mph
(ENE 6 kph)
- 10SM
11:15
Overcast
77°F / 25°C 63°F / 17°C 61% 30.21 in
(1023 mb)
Calm - 10SM
11:00
Mostly Cloudy
79°F / 26°C 64°F / 18°C 61% 30.21 in
(1023 mb)
SSE 3.5 mph
(SSE 6 kph)
- 10SM
10:35
Overcast
75°F / 24°C 63°F / 17°C 65% 30.24 in
(1024 mb)
S 4.6 mph
(S 7 kph)
- 10SM
10:15
Overcast
75°F / 24°C 63°F / 17°C 65% 30.24 in
(1024 mb)
S 3.5 mph
(S 6 kph)
- 10SM
09:55
Mostly Cloudy
73°F / 23°C 63°F / 17°C 69% 30.24 in
(1024 mb)
Calm - 10SM
09:40
Partly Cloudy
73°F / 23°C 63°F / 17°C 69% 30.24 in
(1024 mb)
Calm - 10SM
09:15
Clear
73°F / 23°C 63°F / 17°C 69% 30.24 in
(1024 mb)
Calm - 10SM
08:55
Partly Cloudy
72°F / 22°C 64°F / 18°C 78% 30.24 in
(1024 mb)
Calm - 10SM
08:35
Overcast
68°F / 20°C 64°F / 18°C 88% 30.24 in
(1024 mb)
Calm - 10SM
08:20
Overcast
68°F / 20°C 64°F / 18°C 88% 30.24 in
(1024 mb)
Calm - 10SM
07:55
Overcast
66°F / 19°C 66°F / 19°C 100% 30.24 in
(1024 mb)
Calm - 10SM
07:35
Overcast
66°F / 19°C 66°F / 19°C 100% 30.24 in
(1024 mb)
Calm - 10SM
07:15
Overcast
66°F / 19°C 66°F / 19°C 100% 30.24 in
(1024 mb)
Calm - 10SM
06:55
Overcast
66°F / 19°C 66°F / 19°C 100% 30.24 in
(1024 mb)
Calm - 10SM
06:35
Overcast
64°F / 18°C 64°F / 18°C 100% 30.21 in
(1023 mb)
Calm - 7SM
05:15
Overcast
64°F / 18°C 64°F / 18°C 100% 30.21 in
(1023 mb)
Calm - 7SM
04:55
Overcast
64°F / 18°C 64°F / 18°C 100% 30.21 in
(1023 mb)
Calm - 7SM
04:35
Overcast
64°F / 18°C 64°F / 18°C 100% 30.18 in
(1022 mb)
Calm - 7SM
04:20
Overcast
64°F / 18°C 64°F / 18°C 100% 30.18 in
(1022 mb)
Calm - 7SM
03:55
Overcast
64°F / 18°C 64°F / 18°C 100% 30.18 in
(1022 mb)
Calm - 7SM
03:35
Overcast
Fog And Mist
64°F / 18°C 64°F / 18°C 100% 30.18 in
(1022 mb)
Calm - 5SM
03:15
Overcast
64°F / 18°C 64°F / 18°C 100% 30.18 in
(1022 mb)
Calm - 7SM
02:55
Overcast
Fog And Mist
63°F / 17°C 63°F / 17°C 100% 30.18 in
(1022 mb)
Calm - 4SM
02:35
Mostly Cloudy
Fog And Mist
63°F / 17°C 63°F / 17°C 100% 30.18 in
(1022 mb)
Calm - 5SM
02:15
Mostly Cloudy
Fog And Mist
64°F / 18°C 64°F / 18°C 100% 30.18 in
(1022 mb)
Calm - 4SM
01:55
Overcast
Fog And Mist
64°F / 18°C 64°F / 18°C 100% 30.18 in
(1022 mb)
Calm - 5SM
01:35
Mostly Cloudy
64°F / 18°C 64°F / 18°C 100% 30.18 in
(1022 mb)
Calm - 7SM
01:15
Mostly Cloudy
64°F / 18°C 64°F / 18°C 100% 30.18 in
(1022 mb)
Calm - 7SM
00:55
Overcast
64°F / 18°C 64°F / 18°C 100% 30.21 in
(1023 mb)
Calm - 7SM
00:35
Overcast
64°F / 18°C 64°F / 18°C 100% 30.21 in
(1023 mb)
Calm - 7SM
00:15
Mostly Cloudy
64°F / 18°C 64°F / 18°C 100% 30.21 in
(1023 mb)
Calm - 7SM
Time Weather Temperature Dewpoint Humidity Pressure Winds Precip Visibility


Weather for websites

WeatherForYou.com, LLC is not responsible for any damages or problems caused by this service. Current weather conditions are obtained from the closest station including government and personal stations which may have varying degrees of accuracy. Weather forecasts are derived from the NOAA NDFD. Like all things, this site belongs to Jesus Christ... He just trusts me to maintain it. If you have any questions or comments email webmaster@weatherforyou.com

Copyright © 2014, WeatherForYou.com LLC. All rights reserved.